This demonstration page uses our WeatherBlox Daily Observations layout. Learn more.

Left ArrowRight Arrow

40.92945, -100.16068

Hourly Observations for October 11, 2021

Temp ( °F °C ) Dew Point ( °F °C ) Humidity (%) Winds ( mph kmh ) Pressure ( in mb ) Visibility ( mi km ) Precip ( " mm )
12:15 am 00:15 Clear 43 6.1 41 4.8 91 91 NW 3 6 29.80 1009 10 16 N/A
12:35 am 00:35 Clear 42 5.8 40 4.6 92 92 NW 3 6 29.80 1009 10 16 N/A
12:55 am 00:55 Clear 41 5.1 39 4 93 93 WNW 3 6 29.81 1009 10 16 N/A
1:15 am 01:15 Clear 41 5.1 39 4.1 93 93 W 8 13 29.82 1010 10 16 N/A
1:35 am 01:35 Clear 42 5.7 40 4.7 93 93 WNW 6 9 29.82 1010 10 16 N/A
1:55 am 01:55 Clear 42 5.5 40 4.4 93 93 W 3 6 29.82 1010 10 16 N/A
2:15 am 02:15 Clear 40 4.6 39 3.7 94 94 WNW 5 7 29.84 1011 10 16 N/A
2:35 am 02:35 Clear 40 4.6 39 3.8 95 95 WNW 3 6 29.83 1010 10 16 N/A
2:55 am 02:55 Clear 41 5 39 4.1 94 94 WNW 3 6 29.84 1010 10 16 N/A
3:15 am 03:15 Clear 40 4.6 39 3.9 95 95 WNW 7 11 29.83 1010 7 11 N/A
3:35 am 03:35 Clear 40 4.4 38 3.5 94 94 N N/A 29.83 1010 7 11 N/A
3:55 am 03:55 Clear 40 4.7 38 3.6 93 93 N N/A 29.83 1010 10 16 N/A
4:15 am 04:15 Clear 40 4.5 38 3.5 93 93 W 3 6 29.83 1010 10 16 N/A
4:35 am 04:35 Clear 39 4 38 3.1 94 94 WNW 3 6 29.84 1010 10 16 N/A
4:55 am 04:55 Clear 38 3.5 37 2.6 94 94 WNW 5 7 29.84 1011 10 16 N/A
5:15 am 05:15 Clear 38 3.4 37 2.6 95 95 WNW 5 7 29.84 1011 10 16 N/A
5:35 am 05:35 Clear 38 3.5 37 2.7 95 95 WNW 6 9 29.83 1010 10 16 N/A
5:55 am 05:55 Mostly Cloudy 39 3.9 37 3 94 94 N N/A 29.84 1010 10 16 N/A
6:15 am 06:15 Partly Cloudy 39 3.9 38 3.1 95 95 NW 3 6 29.84 1010 7 11 N/A
6:35 am 06:35 Clear 38 3.5 37 2.5 93 93 N N/A 29.84 1011 7 11 N/A
6:55 am 06:55 Clear 38 3.3 36 2.2 93 93 N N/A 29.84 1011 10 16 N/A
7:15 am 07:15 Clear 38 3.2 36 2.2 93 93 N N/A 29.85 1011 10 16 N/A
7:35 am 07:35 Clear 37 3 36 2.3 95 95 SSW 3 6 29.86 1011 7 11 N/A
7:55 am 07:55 Sunny 38 3.1 36 2.4 95 95 W 6 9 29.86 1011 7 11 N/A
8:15 am 08:15 Sunny 38 3.6 37 2.6 93 93 N N/A 29.85 1011 7 11 N/A
8:35 am 08:35 Sunny with Mist and Fog 40 4.3 38 3.6 95 95 N N/A 29.85 1011 5 8 N/A
8:55 am 08:55 Sunny 43 6.2 42 5.3 94 94 WSW 3 6 29.84 1010 7 11 N/A
9:15 am 09:15 Sunny 46 8 43 6.2 89 89 N N/A 29.82 1010 10 16 N/A
9:35 am 09:35 Sunny 49 9.7 44 6.8 82 82 W 3 6 29.81 1010 10 16 N/A
9:55 am 09:55 Sunny 52 11 46 7.7 80 80 WNW 6 9 29.80 1009 7 11 N/A
10:15 am 10:15 Sunny 54 12.1 46 7.9 76 76 NW 5 7 29.80 1009 10 16 N/A
10:35 am 10:35 Sunny 56 13.5 46 7.9 69 69 WNW 6 9 29.79 1009 10 16 N/A
10:55 am 10:55 Sunny 59 15 46 7.5 61 61 N 3 6 29.77 1008 10 16 N/A
11:15 am 11:15 Sunny 62 16.6 43 6.1 50 50 N N/A 29.75 1008 10 16 N/A
11:35 am 11:35 Sunny 64 17.8 45 7 49 49 NE 6 9 29.74 1007 10 16 N/A
11:55 am 11:55 Sunny 65 18.6 47 8.1 51 51 NE 5 7 29.73 1007 10 16 N/A
12:15 pm 12:15 Sunny 66 18.8 45 7 46 46 NE 6 9 29.73 1007 10 16 N/A
12:55 pm 12:55 Sunny 68 19.9 43 6.1 41 41 N 3 6 29.70 1006 10 16 N/A
1:15 pm 13:15 Sunny 68 20.1 41 5.1 38 38 N N/A 29.70 1006 10 16 N/A
1:35 pm 13:35 Sunny 68 20.2 41 5 37 37 SW 3 6 29.70 1006 10 16 N/A
1:55 pm 13:55 Sunny 69 20.7 41 5.2 36 36 SSW 3 6 29.70 1006 10 16 N/A
2:15 pm 14:15 Sunny 70 21.2 42 5.4 36 36 WSW 5 7 29.69 1006 10 16 N/A
2:35 pm 14:35 Sunny 70 21.2 41 4.8 34 34 N N/A 29.68 1005 10 16 N/A
2:55 pm 14:55 Sunny 70 21.3 40 4.5 33 33 W 3 6 29.68 1005 10 16 N/A
3:15 pm 15:15 Sunny 71 21.4 40 4.5 33 33 N N/A 29.68 1005 10 16 N/A
3:35 pm 15:35 Sunny 71 21.9 40 4.7 33 33 N N/A 29.68 1005 10 16 N/A
3:55 pm 15:55 Sunny 71 21.6 40 4.4 33 33 W 3 6 29.68 1005 10 16 N/A
4:15 pm 16:15 Sunny 71 21.8 42 5.6 35 35 N N/A 29.68 1005 10 16 N/A
4:35 pm 16:35 Sunny 71 21.6 41 5 34 34 ENE 5 7 29.68 1005 10 16 N/A
4:55 pm 16:55 Sunny 71 21.5 40 4.6 33 33 N N/A 29.68 1005 10 16 N/A
5:15 pm 17:15 Sunny 70 21.3 41 4.8 34 34 N N/A 29.68 1005 10 16 N/A
5:35 pm 17:35 Sunny 70 21.3 42 5.7 36 36 N N/A 29.68 1005 10 16 N/A
5:55 pm 17:55 Sunny 69 20.6 42 5.4 37 37 N N/A 29.69 1005 10 16 N/A
6:15 pm 18:15 Sunny 68 20.2 43 6.1 40 40 NE 3 6 29.70 1006 10 16 N/A
6:35 pm 18:35 Hazy 67 19.3 43 6.3 43 43 ENE 3 6 29.71 1006 5 8 N/A
6:55 pm 18:55 Hazy 62 16.9 45 7.2 53 53 ENE 8 13 29.74 1007 4 6 N/A
7:15 pm 19:15 Clear 59 14.9 44 6.4 57 57 ENE 6 9 29.76 1008 7 11 N/A
7:35 pm 19:35 Clear 58 14.6 42 5.8 56 56 E 7 11 29.77 1008 10 16 N/A
7:55 pm 19:55 Clear 55 12.6 43 5.9 64 64 ENE 5 7 29.80 1009 10 16 N/A
8:15 pm 20:15 Clear 55 12.7 42 5.8 63 63 E 5 7 29.81 1009 7 11 N/A
8:35 pm 20:35 Clear 54 12 41 5.2 63 63 ENE 5 7 29.81 1010 10 16 N/A
8:55 pm 20:55 Clear 52 10.9 41 5.1 68 68 ENE 5 7 29.82 1010 10 16 N/A
9:15 pm 21:15 Clear 51 10.8 41 5 68 68 ENE 5 7 29.83 1010 10 16 N/A
9:35 pm 21:35 Clear 49 9.7 40 4.7 71 71 ENE 5 7 29.84 1011 10 16 N/A
9:55 pm 21:55 Clear 51 10.4 40 4.2 66 66 E 3 6 29.85 1011 10 16 N/A
10:15 pm 22:15 Clear 50 10.1 39 4 66 66 N N/A 29.86 1011 10 16 N/A
10:35 pm 22:35 Clear 52 10.9 38 3.4 60 60 E 3 6 29.85 1011 10 16 N/A
10:55 pm 22:55 Clear 50 10.1 38 3.2 63 63 E 3 6 29.86 1011 10 16 N/A
11:15 pm 23:15 Clear 50 9.8 38 3.5 65 65 N N/A 29.88 1012 10 16 N/A
11:35 pm 23:35 Clear 48 8.9 39 3.7 70 70 N N/A 29.89 1012 10 16 N/A
11:55 pm 23:55 Clear 47 8.5 39 4 74 74 ESE 3 6 29.91 1013 10 16 N/A

Powered by AerisWeather